Date,TemperatureHighF,TemperatureAvgF,TemperatureLowF,DewpointHighF,DewpointAvgF,DewpointLowF,HumidityHigh,HumidityAvg,HumidityLow,PressureMaxIn,PressureMinIn,WindSpeedMaxMPH,WindSpeedAvgMPH,GustSpeedMaxMPH,PrecipitationSumIn
2013-2-1,4,-2,-10,-7,-15,-20,67,55,34,0.00,40.00,6,4,14,0.00
2013-2-2,15,4,-2,-6,-9,-13,71,57,28,0.00,40.00,6,2,10,0.00
2013-2-3,18,8,0,2,-4,-8,77,60,36,0.00,40.00,9,3,21,0.00
2013-2-4,18,7,-1,-1,-7,-15,74,56,22,0.00,40.00,4,1,10,0.00
2013-2-5,24,14,-1,16,6,-10,80,69,54,0.00,40.00,9,4,16,0.00
2013-2-6,26,11,-5,20,5,-10,87,77,52,0.00,40.00,2,1,9,0.00
2013-2-7,27,25,23,24,22,17,89,88,80,0.00,40.00,8,5,14,0.00
2013-2-8,28,16,1,17,6,-4,80,64,31,0.00,40.00,7,3,16,0.00
2013-2-9,25,14,-5,20,9,-10,81,78,72,0.00,40.00,6,2,14,0.00
2013-2-10,38,30,25,35,27,20,89,86,78,0.00,40.00,7,2,20,0.00
2013-2-11,37,30,25,34,24,13,89,78,60,0.00,40.00,11,7,24,0.00
2013-2-12,30,24,20,16,11,7,75,59,43,0.00,40.00,8,5,19,0.00
2013-2-13,39,26,13,22,17,9,87,69,39,0.00,40.00,4,1,10,0.00
2013-2-14,32,29,18,27,21,2,88,74,49,0.00,40.00,9,5,20,0.00
2013-2-15,22,13,4,3,-2,-9,69,52,34,0.00,40.00,6,3,15,0.00
2013-2-16,17,5,-8,-3,-9,-16,72,54,26,0.00,40.00,6,2,12,0.00
2013-2-17,23,4,-16,5,-11,-22,72,55,24,0.00,40.00,5,1,12,0.00
2013-2-18,42,30,20,29,18,5,86,63,40,0.00,40.00,9,2,18,0.00
2013-2-19,26,12,4,22,0,-11,85,60,39,0.00,40.00,11,8,24,0.00
2013-2-20,24,10,1,1,-5,-11,71,53,29,0.00,40.00,7,5,16,0.00
2013-2-21,23,12,-4,18,3,-10,85,70,51,0.00,40.00,10,4,27,0.00
2013-2-22,29,25,21,23,21,16,89,84,74,0.00,40.00,9,4,22,0.00
2013-2-23,32,26,23,22,18,13,88,73,47,0.00,40.00,8,-38,15,0.00
2013-2-24,36,26,13,21,16,9,83,68,40,0.00,40.00,5,2,12,0.00
2013-2-25,36,23,10,22,14,7,86,71,42,0.00,40.00,1,0,4,0.00
2013-2-26,35,28,18,24,19,14,90,70,49,0.00,40.00,16,9,28,0.00
2013-2-27,33,31,29,28,23,18,87,72,61,0.00,40.00,14,7,24,0.00
2013-2-28,32,30,23,23,16,7,73,57,43,0.00,40.00,9,7,18,0.00